Meteo orario Abdrezyakovo

Oggi, 24 Giugno, Giovedi

Tempo Temperatura Precipitazioni Vento Pressione Umidità
00:00 +11°C° 0 mm 1 m/s 731 mm Hg 91%
01:00 +11°C° 0 mm 1 m/s 731 mm Hg 92%
02:00 +10°C° 0 mm 1 m/s 731 mm Hg 92%
03:00 +10°C° 0 mm 1 m/s 731 mm Hg 92%
04:00 +10°C° 0 mm 1 m/s 732 mm Hg 91%
05:00 +12°C° 0 mm 1 m/s 732 mm Hg 83%
06:00 +13°C° 0 mm 0 m/s 732 mm Hg 74%
07:00 +15°C° 0 mm 0 m/s 732 mm Hg 65%
08:00 +17°C° 0 mm 0 m/s 732 mm Hg 56%
09:00 +20°C° 0 mm 1 m/s 732 mm Hg 48%
10:00 +22°C° 0 mm 1 m/s 732 mm Hg 39%
11:00 +23°C° 0 mm 1 m/s 732 mm Hg 37%
12:00 +23°C° 0 mm 2 m/s 732 mm Hg 36%
13:00 +24°C° 0 mm 2 m/s 732 mm Hg 35%
14:00 +24°C° 0 mm 2 m/s 732 mm Hg 36%
15:00 +24°C° 0 mm 2 m/s 732 mm Hg 38%
16:00 +24°C° 0 mm 2 m/s 732 mm Hg 39%
17:00 +23°C° 0 mm 2 m/s 731 mm Hg 47%
18:00 +22°C° 0 mm 1 m/s 731 mm Hg 54%
19:00 +21°C° 0 mm 1 m/s 730 mm Hg 62%
20:00 +20°C° 0 mm 1 m/s 730 mm Hg 63%
21:00 +18°C° 0 mm 1 m/s 730 mm Hg 65%
22:00 +15°C° 0 mm 2 m/s 730 mm Hg 66%
23:00 +15°C° 0 mm 2 m/s 729 mm Hg 68%

Domani, 25 Giugno, Venerdi

Tempo Temperatura Precipitazioni Vento Pressione Umidità
00:00 +15°C° 0 mm 2 m/s 729 mm Hg 70%
01:00 +14°C° 0 mm 2 m/s 729 mm Hg 72%
02:00 +15°C° 0 mm 2 m/s 728 mm Hg 73%
03:00 +15°C° 0 mm 2 m/s 728 mm Hg 74%
04:00 +15°C° 0 mm 2 m/s 728 mm Hg 76%
05:00 +15°C° 0.2 mm 2 m/s 728 mm Hg 80%
06:00 +16°C° 0.2 mm 2 m/s 728 mm Hg 84%
07:00 +16°C° 0.2 mm 2 m/s 728 mm Hg 89%
08:00 +18°C° 0 mm 2 m/s 728 mm Hg 85%
09:00 +19°C° 0 mm 3 m/s 728 mm Hg 81%
10:00 +21°C° 0 mm 3 m/s 728 mm Hg 78%
11:00 +22°C° 0 mm 3 m/s 728 mm Hg 75%
12:00 +24°C° 0 mm 3 m/s 728 mm Hg 72%
13:00 +25°C° 0 mm 3 m/s 728 mm Hg 70%
14:00 +25°C° 0.1 mm 3 m/s 727 mm Hg 68%
15:00 +26°C° 0.1 mm 2 m/s 727 mm Hg 66%
16:00 +27°C° 0.1 mm 2 m/s 727 mm Hg 64%
17:00 +26°C° 0.3 mm 2 m/s 727 mm Hg 71%
18:00 +25°C° 0.3 mm 1 m/s 727 mm Hg 78%
19:00 +24°C° 0.3 mm 1 m/s 726 mm Hg 85%
20:00 +23°C° 0.4 mm 1 m/s 726 mm Hg 87%
21:00 +21°C° 0.4 mm 1 m/s 726 mm Hg 90%
22:00 +20°C° 0.4 mm 1 m/s 726 mm Hg 93%
23:00 +19°C° 1.1 mm 1 m/s 726 mm Hg 94%

Dopodomani, 26 Giugno, Sabato

Tempo Temperatura Precipitazioni Vento Pressione Umidità
00:00 +19°C° 1.1 mm 1 m/s 726 mm Hg 95%
01:00 +19°C° 1.1 mm 1 m/s 726 mm Hg 96%
02:00 +18°C° 0.3 mm 1 m/s 726 mm Hg 97%
03:00 +18°C° 0.3 mm 1 m/s 726 mm Hg 97%
04:00 +18°C° 0.3 mm 1 m/s 726 mm Hg 98%
05:00 +19°C° 0.1 mm 1 m/s 726 mm Hg 95%
06:00 +20°C° 0.1 mm 1 m/s 726 mm Hg 93%
07:00 +21°C° 0.1 mm 1 m/s 726 mm Hg 91%
08:00 +23°C° 0 mm 1 m/s 726 mm Hg 82%
09:00 +24°C° 0 mm 2 m/s 726 mm Hg 73%
10:00 +26°C° 0 mm 2 m/s 726 mm Hg 64%
11:00 +27°C° 0 mm 2 m/s 726 mm Hg 62%
12:00 +28°C° 0 mm 3 m/s 726 mm Hg 60%
13:00 +28°C° 0 mm 3 m/s 726 mm Hg 58%
14:00 +29°C° 0.1 mm 3 m/s 726 mm Hg 57%
15:00 +29°C° 0.1 mm 3 m/s 725 mm Hg 56%
16:00 +29°C° 0.1 mm 3 m/s 725 mm Hg 55%
17:00 +27°C° 1.6 mm 3 m/s 725 mm Hg 66%
18:00 +25°C° 1.6 mm 3 m/s 725 mm Hg 77%
19:00 +22°C° 1.6 mm 3 m/s 725 mm Hg 88%
20:00 +21°C° 0.7 mm 2 m/s 725 mm Hg 89%
21:00 +21°C° 0.7 mm 1 m/s 725 mm Hg 90%
22:00 +18°C° 0.7 mm 0 m/s 725 mm Hg 92%
23:00 +20°C° 0 mm 1 m/s 725 mm Hg 92%

27 Giugno, Domenica

Tempo Temperatura Precipitazioni Vento Pressione Umidità
00:00 +19°C° 0 mm 1 m/s 725 mm Hg 93%
01:00 +19°C° 0 mm 1 m/s 725 mm Hg 94%
02:00 +18°C° 0 mm 1 m/s 725 mm Hg 94%
03:00 +18°C° 0 mm 1 m/s 725 mm Hg 95%
04:00 +16°C° 0 mm 0 m/s 725 mm Hg 95%
05:00 +17°C° 0 mm 0 m/s 725 mm Hg 93%
06:00 +19°C° 0 mm 0 m/s 726 mm Hg 90%
07:00 +22°C° 0 mm 1 m/s 726 mm Hg 88%
08:00 +24°C° 0.1 mm 1 m/s 726 mm Hg 78%
09:00 +25°C° 0.1 mm 2 m/s 726 mm Hg 67%
10:00 +27°C° 0.1 mm 3 m/s 726 mm Hg 57%
11:00 +27°C° 0.1 mm 3 m/s 726 mm Hg 54%
12:00 +28°C° 0.1 mm 4 m/s 726 mm Hg 52%
13:00 +28°C° 0.1 mm 4 m/s 726 mm Hg 49%
14:00 +28°C° 0 mm 4 m/s 726 mm Hg 50%
15:00 +27°C° 0 mm 4 m/s 726 mm Hg 51%
16:00 +27°C° 0 mm 4 m/s 727 mm Hg 51%
17:00 +26°C° 0 mm 4 m/s 727 mm Hg 57%
18:00 +25°C° 0 mm 3 m/s 727 mm Hg 62%
19:00 +22°C° 0 mm 3 m/s 727 mm Hg 67%
20:00 +20°C° 0 mm 2 m/s 727 mm Hg 72%
21:00 +18°C° 0 mm 2 m/s 727 mm Hg 78%
22:00 +16°C° 0 mm 1 m/s 728 mm Hg 83%
23:00 +16°C° 0 mm 1 m/s 728 mm Hg 86%

28 Giugno, Lunedi

Tempo Temperatura Precipitazioni Vento Pressione Umidità
00:00 +15°C° 0 mm 1 m/s 728 mm Hg 89%
01:00 +14°C° 0 mm 1 m/s 728 mm Hg 92%
02:00 +14°C° 0 mm 1 m/s 728 mm Hg 93%
03:00 +14°C° 0 mm 1 m/s 729 mm Hg 93%
04:00 +14°C° 0 mm 1 m/s 729 mm Hg 94%
05:00 +16°C° 0 mm 1 m/s 729 mm Hg 88%
06:00 +18°C° 0 mm 1 m/s 729 mm Hg 81%
07:00 +20°C° 0 mm 1 m/s 730 mm Hg 75%
08:00 +20°C° 0 mm 2 m/s 730 mm Hg 67%
09:00 +23°C° 0 mm 2 m/s 730 mm Hg 59%
10:00 +24°C° 0 mm 2 m/s 730 mm Hg 52%
11:00 +25°C° 0 mm 2 m/s 730 mm Hg 48%
12:00 +26°C° 0 mm 2 m/s 730 mm Hg 45%
13:00 +26°C° 0 mm 2 m/s 730 mm Hg 42%
14:00 +27°C° 0 mm 2 m/s 730 mm Hg 41%
15:00 +27°C° 0 mm 2 m/s 730 mm Hg 41%
16:00 +27°C° 0 mm 2 m/s 730 mm Hg 40%
17:00 +26°C° 0 mm 2 m/s 730 mm Hg 49%
18:00 +25°C° 0 mm 2 m/s 730 mm Hg 58%
19:00 +23°C° 0 mm 1 m/s 730 mm Hg 67%
20:00 +21°C° 0 mm 1 m/s 730 mm Hg 72%
21:00 +18°C° 0 mm 2 m/s 730 mm Hg 77%
22:00 +16°C° 0 mm 2 m/s 730 mm Hg 82%
23:00 +16°C° 0 mm 2 m/s 730 mm Hg 83%

29 Giugno, Martedi

Tempo Temperatura Precipitazioni Vento Pressione Umidità
00:00 +15°C° 0 mm 1 m/s 730 mm Hg 85%
01:00 +14°C° 0 mm 1 m/s 730 mm Hg 86%
02:00 +14°C° 0 mm 1 m/s 730 mm Hg 88%
03:00 +14°C° 0 mm 1 m/s 730 mm Hg 89%
04:00 +13°C° 0 mm 1 m/s 730 mm Hg 90%
05:00 +15°C° 0 mm 1 m/s 731 mm Hg 83%
06:00 +18°C° 0 mm 1 m/s 731 mm Hg 76%
07:00 +20°C° 0 mm 1 m/s 731 mm Hg 68%
08:00 +22°C° 0 mm 1 m/s 731 mm Hg 61%
09:00 +24°C° 0 mm 1 m/s 731 mm Hg 54%
10:00 +25°C° 0 mm 2 m/s 731 mm Hg 46%
11:00 +26°C° 0 mm 2 m/s 731 mm Hg 43%
12:00 +27°C° 0 mm 1 m/s 731 mm Hg 41%
13:00 +28°C° 0 mm 1 m/s 731 mm Hg 38%
14:00 +28°C° 0 mm 1 m/s 730 mm Hg 38%
15:00 +28°C° 0 mm 1 m/s 730 mm Hg 38%
16:00 +28°C° 0 mm 1 m/s 730 mm Hg 39%
17:00 +27°C° 0 mm 1 m/s 730 mm Hg 46%
18:00 +26°C° 0 mm 1 m/s 730 mm Hg 54%
19:00 +25°C° 0 mm 1 m/s 730 mm Hg 62%
20:00 +23°C° 0 mm 1 m/s 730 mm Hg 67%
21:00 +21°C° 0 mm 1 m/s 730 mm Hg 72%
22:00 +18°C° 0 mm 2 m/s 729 mm Hg 77%
23:00 +18°C° 0 mm 1 m/s 729 mm Hg 79%
Mostrare altro

Abbiamo bisogno del tuo consenso

Meteoprog e i nostri fornitori di servizi possono memorizzare e accedere a dati personali come cookie, identificatori di dispositivi o altre tecnologie simili sul tuo dispositivo e possono elaborare tali dati per personalizzare i contenuti e gli annunci, nonché fornire funzionalità dei social media e analizzarne il traffico.

  • Archiviare e/o accedere alle informazioni sul tuo dispositivo

    Cookie, identificatori di dispositivi o altre informazioni possono essere memorizzati o resi accessibili sul tuo dispositivo per le finalità sopra indicate.

  • Annunci e contenuti personalizzati, misurazione di annunci e contenuti, approfondimenti sul pubblico e sviluppo di prodotti

    Gli annunci e i contenuti possono essere personalizzati in base a un profilo. È possibile aggiungere più dati per personalizzare meglio annunci e contenuti. È possibile misurare il rendimento degli annunci e dei contenuti. È possibile ricavare informazioni sul pubblico che ha visto gli annunci e i contenuti. Tali dati possono essere utilizzati per sviluppare o migliorare l'esperienza, i sistemi e il software dell'utente.

Cliccando su “Accetto”, acconsenti all'uso di cookie, identificatori di dispositivo, web beacon o altre tecnologie simili. Puoi modificare le impostazioni nel browser del tuo dispositivo.

Per determinati scopi, è possibile fare affidamento su interessi legali, piuttosto che sul consenso. Puoi approfondire questo argomento consultando la nostra Informativa sulla privacy e sui cookie.